| time (UTC) | temp F | wind direction | speed MPH | gust MPH | rain 1hr in | rain 24hr in | rain mn in | humidity % | barometer mb |
| 20260507003541 | 73 | 324 | 2.0 | 4.0 | 0.00 | 0.00 | 0.00 | 73 | 1017.9 |
| 20260507003043 | 73 | 334 | 2.0 | 4.0 | 0.00 | 0.00 | 0.00 | 73 | 1017.9 |
| 20260507002544 | 73 | 335 | 2.0 | 4.0 | 0.00 | 0.00 | 0.00 | 73 | 1017.9 |
| 20260507002046 | 73 | 359 | 3.0 | 4.0 | 0.00 | 0.00 | 0.00 | 73 | 1018.0 |
| 20260507001529 | 73 | 347 | 1.0 | 3.0 | 0.00 | 0.00 | 0.00 | 73 | 1018.0 |
| 20260507001032 | 73 | 1 | 0.0 | 0.0 | 0.00 | 0.00 | 0.00 | 72 | 1018.0 |
| 20260507000533 | 73 | 1 | 0.0 | 3.0 | 0.00 | 0.00 | 0.00 | 72 | 1018.1 |
| 20260507000039 | 73 | 1 | 1.0 | 3.0 | 0.00 | 0.00 | 0.00 | 72 | 1018.1 |
| 20260506235541 | 73 | 1 | 1.0 | 4.0 | 0.00 | 0.00 | 0.00 | 72 | 1018.1 |
| 20260506235102 | 73 | 329 | 2.0 | 4.0 | 0.00 | 0.00 | 0.00 | 72 | 1018.1 |
| 20260506234544 | 74 | 341 | 1.0 | 4.0 | 0.00 | 0.00 | 0.00 | 72 | 1018.0 |
| 20260506234047 | 74 | 349 | 2.0 | 3.0 | 0.00 | 0.00 | 0.00 | 72 | 1018.1 |
| 20260506233053 | 74 | 359 | 1.0 | 5.0 | 0.00 | 0.00 | 0.00 | 73 | 1018.1 |
| 20260506232537 | 74 | 348 | 3.0 | 5.0 | 0.00 | 0.00 | 0.00 | 73 | 1018.1 |
| 20260506232040 | 74 | 1 | 2.0 | 5.0 | 0.00 | 0.00 | 0.00 | 72 | 1018.1 |
| 20260506231542 | 74 | 5 | 2.0 | 4.0 | 0.00 | 0.00 | 0.00 | 73 | 1018.1 |
| 20260506231043 | 74 | 334 | 3.0 | 4.0 | 0.00 | 0.00 | 0.00 | 73 | 1018.1 |
| 20260506230525 | 74 | 359 | 2.0 | 3.0 | 0.00 | 0.00 | 0.00 | 73 | 1018.1 |
| 20260506230034 | 74 | 319 | 1.0 | 4.0 | 0.00 | 0.00 | 0.00 | 72 | 1018.1 |
| 20260506225535 | 74 | 338 | 2.0 | 5.0 | 0.00 | 0.00 | 0.00 | 72 | 1018.0 |
| 20260506225042 | 74 | 347 | 3.0 | 5.0 | 0.00 | 0.00 | 0.00 | 72 | 1018.0 |
| 20260506224542 | 74 | 359 | 2.0 | 3.0 | 0.00 | 0.00 | 0.00 | 72 | 1018.0 |
| 20260506224104 | 75 | 330 | 2.0 | 3.0 | 0.00 | 0.00 | 0.00 | 72 | 1018.0 |
| 20260506223546 | 75 | 4 | 1.0 | 2.0 | 0.00 | 0.00 | 0.00 | 72 | 1018.0 |
| 20260506223028 | 75 | 1 | 1.0 | 3.0 | 0.00 | 0.00 | 0.00 | 72 | 1018.0 |
| 20260506222551 | 75 | 8 | 1.0 | 4.0 | 0.00 | 0.00 | 0.00 | 72 | 1018.1 |
| 20260506222037 | 75 | 16 | 2.0 | 4.0 | 0.00 | 0.00 | 0.00 | 72 | 1018.0 |
| 20260506221541 | 75 | 359 | 1.0 | 2.0 | 0.00 | 0.00 | 0.00 | 72 | 1018.1 |
| 20260506221025 | 75 | 1 | 1.0 | 2.0 | 0.00 | 0.00 | 0.00 | 71 | 1018.1 |
| 20260506220530 | 75 | 359 | 0.0 | 0.0 | 0.00 | 0.00 | 0.00 | 71 | 1018.1 |
| 20260506220039 | 76 | 22 | 0.0 | 0.0 | 0.00 | 0.00 | 0.00 | 71 | 1018.0 |
| 20260506215543 | 76 | 353 | 0.0 | 0.0 | 0.00 | 0.00 | 0.00 | 70 | 1018.0 |
| 20260506215028 | 76 | 342 | 0.0 | 0.0 | 0.00 | 0.00 | 0.00 | 69 | 1018.1 |
| 20260506214531 | 76 | 359 | 0.0 | 0.0 | 0.00 | 0.00 | 0.00 | 69 | 1018.0 |
| 20260506214036 | 77 | 359 | 0.0 | 3.0 | 0.00 | 0.00 | 0.00 | 67 | 1018.1 |
| 20260506213536 | 77 | 359 | 1.0 | 3.0 | 0.00 | 0.00 | 0.00 | 67 | 1018.1 |
| 20260506213040 | 77 | 12 | 0.0 | 4.0 | 0.00 | 0.00 | 0.00 | 66 | 1018.1 |
| 20260506212542 | 77 | 33 | 1.0 | 4.0 | 0.00 | 0.00 | 0.00 | 66 | 1018.1 |
| 20260506212028 | 78 | 1 | 1.0 | 6.0 | 0.00 | 0.00 | 0.00 | 65 | 1018.0 |
| 20260506211530 | 78 | 360 | 3.0 | 6.0 | 0.00 | 0.00 | 0.00 | 65 | 1017.9 |
| 20260506211033 | 78 | 359 | 3.0 | 6.0 | 0.00 | 0.00 | 0.00 | 65 | 1018.0 |
| 20260506210535 | 78 | 356 | 3.0 | 7.0 | 0.00 | 0.00 | 0.00 | 64 | 1018.0 |
| 20260506210039 | 78 | 18 | 4.0 | 7.0 | 0.00 | 0.00 | 0.00 | 64 | 1018.1 |
| 20260506205542 | 78 | 21 | 4.0 | 5.0 | 0.00 | 0.00 | 0.00 | 65 | 1018.1 |
| 20260506205044 | 78 | 6 | 2.0 | 5.0 | 0.00 | 0.00 | 0.00 | 65 | 1018.0 |
| 20260506204549 | 79 | 340 | 2.0 | 5.0 | 0.00 | 0.00 | 0.00 | 65 | 1018.0 |
| 20260506204031 | 79 | 340 | 2.0 | 4.0 | 0.00 | 0.00 | 0.00 | 65 | 1018.0 |
| 20260506203536 | 79 | 1 | 2.0 | 4.0 | 0.00 | 0.00 | 0.00 | 64 | 1018.0 |
| 20260506203038 | 80 | 359 | 2.0 | 3.0 | 0.00 | 0.00 | 0.00 | 64 | 1018.0 |
| 20260506202541 | 80 | 355 | 2.0 | 5.0 | 0.00 | 0.00 | 0.00 | 63 | 1018.1 |
| 20260506202106 | 80 | 1 | 2.0 | 5.0 | 0.00 | 0.00 | 0.00 | 63 | 1018.2 |
| 20260506201530 | 80 | 354 | 3.0 | 7.0 | 0.00 | 0.00 | 0.00 | 62 | 1018.2 |
| 20260506201033 | 81 | 11 | 4.0 | 9.0 | 0.00 | 0.00 | 0.00 | 61 | 1018.2 |
| 20260506200557 | 81 | 359 | 5.0 | 9.0 | 0.00 | 0.00 | 0.00 | 61 | 1018.2 |
| 20260506200041 | 81 | 335 | 3.0 | 9.0 | 0.00 | 0.00 | 0.00 | 60 | 1018.3 |
| 20260506195545 | 82 | 1 | 3.0 | 9.0 | 0.00 | 0.00 | 0.00 | 60 | 1018.2 |
| 20260506195028 | 82 | 336 | 5.0 | 9.0 | 0.00 | 0.00 | 0.00 | 60 | 1018.3 |
| 20260506194552 | 82 | 1 | 3.0 | 7.0 | 0.00 | 0.00 | 0.00 | 60 | 1018.3 |
| 20260506194032 | 82 | 316 | 5.0 | 10.0 | 0.00 | 0.00 | 0.00 | 60 | 1018.3 |
| 20260506193538 | 82 | 349 | 6.0 | 10.0 | 0.00 | 0.00 | 0.00 | 59 | 1018.1 |
| 20260506193100 | 82 | 310 | 6.0 | 10.0 | 0.00 | 0.00 | 0.00 | 59 | 1018.1 |
| 20260506192601 | 82 | 359 | 7.0 | 10.0 | 0.00 | 0.00 | 0.00 | 60 | 1018.1 |
| 20260506192043 | 82 | 1 | 5.0 | 10.0 | 0.00 | 0.00 | 0.00 | 59 | 1018.2 |
| 20260506191527 | 82 | 11 | 6.0 | 10.0 | 0.00 | 0.00 | 0.00 | 59 | 1018.3 |
| 20260506191029 | 83 | 359 | 6.0 | 10.0 | 0.00 | 0.00 | 0.00 | 59 | 1018.2 |
| 20260506190531 | 83 | 359 | 4.0 | 9.0 | 0.00 | 0.00 | 0.00 | 60 | 1018.2 |
| 20260506190035 | 82 | 327 | 5.0 | 9.0 | 0.00 | 0.00 | 0.00 | 60 | 1018.1 |
| 20260506185536 | 82 | 337 | 3.0 | 9.0 | 0.00 | 0.00 | 0.00 | 61 | 1018.2 |
| 20260506185026 | 81 | 358 | 5.0 | 11.0 | 0.00 | 0.00 | 0.00 | 62 | 1018.3 |
| 20260506184530 | 81 | 27 | 6.0 | 11.0 | 0.00 | 0.00 | 0.00 | 61 | 1018.3 |
| 20260506184054 | 82 | 9 | 5.0 | 9.0 | 0.00 | 0.00 | 0.00 | 61 | 1018.3 |
| 20260506183536 | 82 | 10 | 4.0 | 9.0 | 0.00 | 0.00 | 0.00 | 61 | 1018.4 |
| 20260506183041 | 82 | 31 | 5.0 | 13.0 | 0.00 | 0.00 | 0.00 | 60 | 1018.4 |
| 20260506182542 | 82 | 14 | 6.0 | 13.0 | 0.00 | 0.00 | 0.00 | 59 | 1018.5 |
| 20260506182025 | 82 | 356 | 7.0 | 13.0 | 0.00 | 0.00 | 0.00 | 59 | 1018.4 |
| 20260506181531 | 82 | 39 | 7.0 | 13.0 | 0.00 | 0.00 | 0.00 | 60 | 1018.5 |
| 20260506181034 | 82 | 35 | 8.0 | 13.0 | 0.00 | 0.00 | 0.00 | 60 | 1018.5 |
| 20260506180557 | 83 | 18 | 5.0 | 12.0 | 0.00 | 0.00 | 0.00 | 59 | 1018.5 |
| 20260506180043 | 83 | 346 | 5.0 | 14.0 | 0.00 | 0.00 | 0.00 | 60 | 1018.6 |
| 20260506175546 | 83 | 13 | 9.0 | 14.0 | 0.00 | 0.00 | 0.00 | 60 | 1018.7 |
| 20260506175026 | 83 | 360 | 7.0 | 11.0 | 0.00 | 0.00 | 0.00 | 60 | 1018.7 |
| 20260506174536 | 83 | 360 | 6.0 | 11.0 | 0.00 | 0.00 | 0.00 | 60 | 1018.7 |
| 20260506174040 | 83 | 15 | 7.0 | 12.0 | 0.00 | 0.00 | 0.00 | 61 | 1018.8 |
| 20260506173542 | 82 | 2 | 9.0 | 16.0 | 0.00 | 0.00 | 0.00 | 60 | 1018.9 |
| 20260506173025 | 83 | 21 | 8.0 | 14.0 | 0.00 | 0.00 | 0.00 | 60 | 1018.9 |
| 20260506172549 | 83 | 307 | 5.0 | 11.0 | 0.00 | 0.00 | 0.00 | 62 | 1018.9 |
| 20260506172053 | 83 | 360 | 9.0 | 13.0 | 0.00 | 0.00 | 0.00 | 62 | 1018.9 |
| 20260506171538 | 83 | 41 | 7.0 | 13.0 | 0.00 | 0.00 | 0.00 | 61 | 1019.0 |
| 20260506171043 | 83 | 345 | 4.0 | 11.0 | 0.00 | 0.00 | 0.00 | 62 | 1019.1 |
| 20260506170529 | 82 | 25 | 4.0 | 13.0 | 0.00 | 0.00 | 0.00 | 64 | 1019.1 |
| 20260506170032 | 82 | 316 | 8.0 | 17.0 | 0.00 | 0.00 | 0.00 | 63 | 1019.2 |
| 20260506165534 | 82 | 325 | 11.0 | 17.0 | 0.00 | 0.00 | 0.00 | 63 | 1019.3 |
| 20260506165035 | 82 | 351 | 9.0 | 13.0 | 0.00 | 0.00 | 0.00 | 63 | 1019.4 |
| 20260506164534 | 82 | 1 | 7.0 | 13.0 | 0.00 | 0.00 | 0.00 | 64 | 1019.4 |
| 20260506164035 | 81 | 360 | 6.0 | 17.0 | 0.00 | 0.00 | 0.00 | 64 | 1019.6 |
| 20260506163541 | 81 | 354 | 9.0 | 17.0 | 0.00 | 0.00 | 0.00 | 63 | 1019.7 |
| 20260506163041 | 81 | 358 | 7.0 | 14.0 | 0.00 | 0.00 | 0.00 | 64 | 1019.7 |
| 20260506162541 | 81 | 333 | 6.0 | 15.0 | 0.00 | 0.00 | 0.00 | 64 | 1019.7 |
| 20260506162043 | 81 | 1 | 9.0 | 15.0 | 0.00 | 0.00 | 0.00 | 64 | 1019.9 |
| 20260506161544 | 81 | 353 | 9.0 | 15.0 | 0.00 | 0.00 | 0.00 | 64 | 1020.0 |
| 20260506161044 | 81 | 16 | 7.0 | 15.0 | 0.00 | 0.00 | 0.00 | 66 | 1020.1 |
| 20260506160526 | 80 | 14 | 9.0 | 15.0 | 0.00 | 0.00 | 0.00 | 65 | 1020.2 |
| 20260506160111 | 80 | 44 | 8.0 | 14.0 | 0.00 | 0.00 | 0.00 | 66 | 1020.3 |
| 20260506155548 | 80 | 1 | 5.0 | 11.0 | 0.00 | 0.00 | 0.00 | 67 | 1020.4 |
| 20260506155027 | 80 | 36 | 7.0 | 15.0 | 0.00 | 0.00 | 0.00 | 67 | 1020.5 |
| 20260506154530 | 79 | 357 | 7.0 | 15.0 | 0.00 | 0.00 | 0.00 | 68 | 1020.6 |
| 20260506154031 | 79 | 359 | 8.0 | 16.0 | 0.00 | 0.00 | 0.00 | 68 | 1020.8 |
| 20260506153551 | 79 | 266 | 10.0 | 17.0 | 0.00 | 0.00 | 0.00 | 68 | 1020.8 |
| 20260506153031 | 80 | 17 | 7.0 | 12.0 | 0.00 | 0.00 | 0.00 | 69 | 1020.9 |
| 20260506152533 | 79 | 358 | 8.0 | 12.0 | 0.00 | 0.00 | 0.00 | 69 | 1021.0 |
| 20260506152038 | 80 | 19 | 5.0 | 10.0 | 0.00 | 0.00 | 0.00 | 68 | 1021.0 |
| 20260506151541 | 79 | 345 | 5.0 | 10.0 | 0.00 | 0.00 | 0.00 | 70 | 1021.0 |
| 20260506151101 | 79 | 20 | 4.0 | 13.0 | 0.00 | 0.00 | 0.00 | 71 | 1021.2 |
| 20260506150540 | 78 | 22 | 9.0 | 13.0 | 0.00 | 0.00 | 0.00 | 71 | 1021.2 |
| 20260506150041 | 78 | 359 | 6.0 | 13.0 | 0.00 | 0.00 | 0.00 | 71 | 1021.3 |
| 20260506145603 | 78 | 360 | 9.0 | 13.0 | 0.00 | 0.00 | 0.00 | 71 | 1021.4 |
| 20260506145103 | 78 | 4 | 6.0 | 12.0 | 0.00 | 0.00 | 0.00 | 72 | 1021.5 |
| 20260506144544 | 77 | 357 | 7.0 | 11.0 | 0.00 | 0.00 | 0.00 | 72 | 1021.5 |
| 20260506144045 | 77 | 19 | 4.0 | 11.0 | 0.00 | 0.00 | 0.00 | 73 | 1021.6 |
| 20260506143545 | 77 | 5 | 6.0 | 11.0 | 0.00 | 0.00 | 0.00 | 73 | 1021.7 |
| 20260506143046 | 76 | 360 | 6.0 | 11.0 | 0.00 | 0.00 | 0.00 | 74 | 1021.7 |
| 20260506142529 | 76 | 352 | 8.0 | 12.0 | 0.00 | 0.00 | 0.00 | 74 | 1021.7 |
| 20260506142030 | 76 | 23 | 7.0 | 12.0 | 0.00 | 0.00 | 0.00 | 74 | 1021.8 |
| 20260506141532 | 75 | 9 | 6.0 | 9.0 | 0.00 | 0.00 | 0.00 | 75 | 1022.0 |
| 20260506141034 | 75 | 16 | 5.0 | 12.0 | 0.00 | 0.00 | 0.00 | 76 | 1021.9 |
| 20260506140533 | 74 | 1 | 8.0 | 12.0 | 0.00 | 0.00 | 0.00 | 76 | 1022.0 |
| 20260506140038 | 74 | 1 | 8.0 | 12.0 | 0.00 | 0.00 | 0.00 | 76 | 1022.1 |
| 20260506135556 | 74 | 10 | 6.0 | 12.0 | 0.00 | 0.00 | 0.00 | 76 | 1022.2 |
| 20260506135043 | 74 | 13 | 8.0 | 12.0 | 0.00 | 0.00 | 0.00 | 76 | 1022.2 |
| 20260506134543 | 74 | 351 | 9.0 | 13.0 | 0.00 | 0.00 | 0.00 | 75 | 1022.2 |
| 20260506134043 | 75 | 23 | 8.0 | 13.0 | 0.00 | 0.00 | 0.00 | 75 | 1022.2 |
| 20260506133544 | 75 | 360 | 7.0 | 13.0 | 0.00 | 0.00 | 0.00 | 75 | 1022.1 |
| 20260506133044 | 74 | 343 | 8.0 | 13.0 | 0.00 | 0.00 | 0.00 | 75 | 1022.3 |
| 20260506132607 | 74 | 360 | 9.0 | 15.0 | 0.00 | 0.00 | 0.00 | 75 | 1022.3 |
| 20260506132046 | 74 | 1 | 8.0 | 15.0 | 0.00 | 0.00 | 0.00 | 77 | 1022.3 |
| 20260506131528 | 74 | 7 | 7.0 | 12.0 | 0.00 | 0.00 | 0.00 | 77 | 1022.3 |
| 20260506131049 | 74 | 20 | 8.0 | 13.0 | 0.00 | 0.00 | 0.00 | 77 | 1022.5 |
| 20260506130530 | 73 | 359 | 8.0 | 15.0 | 0.00 | 0.00 | 0.00 | 77 | 1022.6 |
| 20260506130053 | 73 | 1 | 8.0 | 13.0 | 0.00 | 0.00 | 0.00 | 78 | 1022.5 |
| 20260506125535 | 73 | 1 | 6.0 | 13.0 | 0.00 | 0.00 | 0.00 | 78 | 1022.7 |
| 20260506125034 | 72 | 8 | 8.0 | 13.0 | 0.00 | 0.00 | 0.00 | 78 | 1022.7 |
| 20260506124532 | 72 | 1 | 8.0 | 12.0 | 0.00 | 0.00 | 0.00 | 79 | 1022.5 |
| 20260506124033 | 72 | 30 | 8.0 | 12.0 | 0.00 | 0.00 | 0.00 | 79 | 1022.6 |
| 20260506123553 | 72 | 359 | 7.0 | 12.0 | 0.00 | 0.00 | 0.00 | 79 | 1022.7 |
| 20260506123032 | 72 | 12 | 8.0 | 11.0 | 0.00 | 0.00 | 0.00 | 79 | 1022.6 |
| 20260506122538 | 72 | 8 | 7.0 | 10.0 | 0.00 | 0.00 | 0.00 | 79 | 1022.7 |
| 20260506122039 | 72 | 360 | 7.0 | 10.0 | 0.00 | 0.00 | 0.00 | 79 | 1022.7 |
| 20260506121539 | 71 | 17 | 5.0 | 10.0 | 0.00 | 0.00 | 0.00 | 80 | 1022.5 |
| 20260506121044 | 71 | 1 | 7.0 | 10.0 | 0.00 | 0.00 | 0.00 | 80 | 1022.5 |
| 20260506120524 | 71 | 25 | 6.0 | 8.0 | 0.00 | 0.00 | 0.00 | 81 | 1022.4 |
| 20260506120053 | 70 | 360 | 5.0 | 9.0 | 0.00 | 0.00 | 0.00 | 81 | 1022.5 |
| 20260506115533 | 70 | 356 | 6.0 | 9.0 | 0.00 | 0.00 | 0.00 | 82 | 1022.5 |
| 20260506115037 | 70 | 13 | 5.0 | 9.0 | 0.00 | 0.00 | 0.00 | 82 | 1022.5 |
| 20260506114538 | 70 | 8 | 5.0 | 9.0 | 0.00 | 0.00 | 0.00 | 82 | 1022.4 |
| 20260506114039 | 70 | 5 | 6.0 | 10.0 | 0.00 | 0.00 | 0.00 | 82 | 1022.4 |
| 20260506113544 | 69 | 354 | 6.0 | 10.0 | 0.00 | 0.00 | 0.00 | 82 | 1022.4 |
| 20260506113028 | 69 | 1 | 7.0 | 9.0 | 0.00 | 0.00 | 0.00 | 82 | 1022.3 |
| 20260506112534 | 69 | 1 | 6.0 | 8.0 | 0.00 | 0.00 | 0.00 | 83 | 1022.3 |
| 20260506112042 | 69 | 352 | 5.0 | 7.0 | 0.00 | 0.00 | 0.00 | 83 | 1022.3 |
| 20260506111547 | 68 | 11 | 4.0 | 7.0 | 0.00 | 0.00 | 0.00 | 84 | 1022.2 |
| 20260506111030 | 68 | 8 | 5.0 | 8.0 | 0.00 | 0.00 | 0.00 | 85 | 1022.2 |
| 20260506110532 | 67 | 356 | 4.0 | 8.0 | 0.00 | 0.00 | 0.00 | 86 | 1022.2 |
| 20260506110035 | 67 | 1 | 5.0 | 7.0 | 0.00 | 0.00 | 0.00 | 86 | 1022.2 |
| 20260506105538 | 67 | 354 | 4.0 | 7.0 | 0.00 | 0.00 | 0.00 | 86 | 1022.1 |
| 20260506104544 | 67 | 360 | 3.0 | 7.0 | 0.00 | 0.00 | 0.00 | 86 | 1022.0 |
| 20260506104046 | 67 | 359 | 3.0 | 7.0 | 0.00 | 0.00 | 0.00 | 86 | 1021.8 |
| 20260506103530 | 67 | 28 | 4.0 | 7.0 | 0.00 | 0.00 | 0.00 | 86 | 1021.8 |
| 20260506103035 | 67 | 354 | 4.0 | 7.0 | 0.00 | 0.00 | 0.00 | 86 | 1021.8 |
| 20260506102601 | 67 | 1 | 4.0 | 8.0 | 0.00 | 0.00 | 0.00 | 86 | 1021.7 |
| 20260506102101 | 67 | 8 | 5.0 | 8.0 | 0.00 | 0.00 | 0.00 | 86 | 1021.7 |
| 20260506101542 | 67 | 331 | 5.0 | 10.0 | 0.00 | 0.00 | 0.00 | 86 | 1021.7 |
| 20260506101045 | 67 | 13 | 6.0 | 10.0 | 0.00 | 0.00 | 0.00 | 86 | 1021.7 |
| 20260506100531 | 66 | 9 | 4.0 | 7.0 | 0.00 | 0.00 | 0.00 | 86 | 1021.7 |
| 20260506100039 | 66 | 9 | 4.0 | 7.0 | 0.00 | 0.00 | 0.00 | 86 | 1021.7 |
| 20260506095537 | 66 | 5 | 3.0 | 6.0 | 0.00 | 0.00 | 0.00 | 86 | 1021.7 |
| 20260506095043 | 67 | 15 | 3.0 | 6.0 | 0.00 | 0.00 | 0.00 | 86 | 1021.7 |
| 20260506094527 | 67 | 1 | 4.0 | 6.0 | 0.00 | 0.00 | 0.00 | 86 | 1021.7 |
| 20260506094031 | 67 | 1 | 4.0 | 6.0 | 0.00 | 0.00 | 0.00 | 86 | 1021.6 |
| 20260506093533 | 66 | 1 | 4.0 | 6.0 | 0.00 | 0.00 | 0.00 | 86 | 1021.6 |
| 20260506093035 | 67 | 360 | 3.0 | 5.0 | 0.00 | 0.00 | 0.00 | 86 | 1021.7 |
| 20260506092536 | 67 | 359 | 3.0 | 7.0 | 0.00 | 0.00 | 0.00 | 86 | 1021.5 |
| 20260506092039 | 67 | 360 | 3.0 | 6.0 | 0.00 | 0.00 | 0.00 | 86 | 1021.5 |
| 20260506091542 | 67 | 1 | 3.0 | 6.0 | 0.00 | 0.00 | 0.00 | 86 | 1021.3 |
| 20260506091104 | 67 | 5 | 4.0 | 7.0 | 0.00 | 0.00 | 0.00 | 86 | 1021.3 |
| 20260506090527 | 67 | 20 | 4.0 | 7.0 | 0.00 | 0.00 | 0.00 | 86 | 1021.2 |
| 20260506090035 | 67 | 359 | 3.0 | 6.0 | 0.00 | 0.00 | 0.00 | 86 | 1021.2 |
| 20260506085541 | 67 | 356 | 5.0 | 6.0 | 0.00 | 0.00 | 0.00 | 86 | 1021.2 |
| 20260506085104 | 67 | 1 | 4.0 | 6.0 | 0.00 | 0.00 | 0.00 | 86 | 1021.4 |
| 20260506084546 | 67 | 9 | 3.0 | 6.0 | 0.00 | 0.00 | 0.00 | 85 | 1021.4 |
| 20260506084028 | 67 | 21 | 4.0 | 6.0 | 0.00 | 0.00 | 0.00 | 85 | 1021.4 |
| 20260506083533 | 67 | 13 | 3.0 | 6.0 | 0.00 | 0.00 | 0.00 | 85 | 1021.3 |
| 20260506083035 | 67 | 1 | 4.0 | 6.0 | 0.00 | 0.00 | 0.00 | 85 | 1021.2 |
| 20260506082542 | 67 | 359 | 4.0 | 5.0 | 0.00 | 0.00 | 0.00 | 84 | 1021.2 |
| 20260506082026 | 67 | 354 | 4.0 | 7.0 | 0.00 | 0.00 | 0.00 | 84 | 1021.2 |
| 20260506081551 | 67 | 4 | 4.0 | 7.0 | 0.00 | 0.00 | 0.00 | 84 | 1021.2 |
| 20260506081034 | 67 | 3 | 4.0 | 6.0 | 0.00 | 0.00 | 0.00 | 84 | 1021.2 |
| 20260506080538 | 67 | 1 | 3.0 | 6.0 | 0.00 | 0.00 | 0.00 | 84 | 1021.2 |
| 20260506073101 | 67 | 1 | 4.0 | 5.0 | 0.00 | 0.00 | 0.00 | 84 | 1021.4 |
| 20260506072544 | 67 | 1 | 4.0 | 6.0 | 0.00 | 0.00 | 0.00 | 84 | 1021.3 |
| 20260506072027 | 67 | 359 | 3.0 | 6.0 | 0.00 | 0.00 | 0.00 | 83 | 1021.3 |
| 20260506071531 | 67 | 360 | 4.0 | 6.0 | 0.00 | 0.00 | 0.00 | 83 | 1021.4 |
| 20260506071032 | 67 | 335 | 4.0 | 6.0 | 0.00 | 0.00 | 0.00 | 83 | 1021.4 |
| 20260506070533 | 67 | 4 | 4.0 | 7.0 | 0.00 | 0.00 | 0.00 | 83 | 1021.4 |
| 20260506062041 | 67 | 345 | 3.0 | 5.0 | 0.00 | 0.00 | 0.00 | 82 | 1021.7 |
| 20260506061544 | 67 | 359 | 3.0 | 5.0 | 0.00 | 0.00 | 0.00 | 82 | 1021.7 |
| 20260506061046 | 68 | 1 | 3.0 | 5.0 | 0.00 | 0.00 | 0.00 | 83 | 1021.7 |
| 20260506060528 | 68 | 359 | 4.0 | 6.0 | 0.00 | 0.00 | 0.00 | 83 | 1021.8 |
| 20260506051025 | 68 | 7 | 5.0 | 6.0 | 0.00 | 0.00 | 0.00 | 82 | 1021.8 |
| 20260506050530 | 68 | 14 | 4.0 | 6.0 | 0.00 | 0.00 | 0.00 | 82 | 1021.7 |
| 20260506045108 | 68 | 1 | 4.0 | 6.0 | 0.00 | 0.00 | 0.00 | 82 | 1021.8 |
| 20260506044528 | 68 | 11 | 4.0 | 6.0 | 0.00 | 0.00 | 0.00 | 82 | 1021.7 |
| 20260506044034 | 68 | 33 | 4.0 | 6.0 | 0.00 | 0.00 | 0.00 | 82 | 1021.6 |
| 20260506043537 | 68 | 1 | 4.0 | 6.0 | 0.00 | 0.00 | 0.00 | 83 | 1021.7 |
| 20260506043042 | 68 | 17 | 4.0 | 6.0 | 0.00 | 0.00 | 0.00 | 83 | 1021.6 |
| 20260506042528 | 68 | 15 | 4.0 | 6.0 | 0.00 | 0.00 | 0.00 | 83 | 1021.7 |
| 20260506042031 | 68 | 1 | 4.0 | 6.0 | 0.00 | 0.00 | 0.00 | 84 | 1021.7 |
| 20260506041535 | 68 | 11 | 4.0 | 5.0 | 0.00 | 0.00 | 0.00 | 84 | 1021.6 |
| 20260506041038 | 67 | 1 | 4.0 | 5.0 | 0.00 | 0.00 | 0.00 | 84 | 1021.6 |
| 20260506040541 | 67 | 1 | 4.0 | 5.0 | 0.00 | 0.00 | 0.00 | 85 | 1021.6 |
| 20260506040044 | 67 | 358 | 3.0 | 4.0 | 0.00 | 0.00 | 0.00 | 84 | 1021.5 |
| 20260506035547 | 67 | 1 | 3.0 | 4.0 | 0.00 | 0.00 | 0.00 | 85 | 1021.4 |
| 20260506035028 | 67 | 1 | 3.0 | 4.0 | 0.00 | 0.00 | 0.00 | 85 | 1021.3 |
| 20260506034532 | 67 | 6 | 3.0 | 4.0 | 0.00 | 0.00 | 0.00 | 85 | 1021.3 |
| 20260506034035 | 68 | 1 | 3.0 | 4.0 | 0.00 | 0.00 | 0.00 | 84 | 1021.3 |
| 20260506033541 | 68 | 359 | 2.0 | 4.0 | 0.00 | 0.00 | 0.00 | 84 | 1021.4 |
| 20260506033045 | 68 | 3 | 3.0 | 4.0 | 0.00 | 0.00 | 0.00 | 84 | 1021.3 |
| 20260506032533 | 68 | 360 | 3.0 | 4.0 | 0.00 | 0.00 | 0.00 | 84 | 1021.2 |
| 20260506032057 | 68 | 1 | 2.0 | 4.0 | 0.00 | 0.00 | 0.00 | 84 | 1021.2 |
| 20260506031540 | 68 | 359 | 2.0 | 4.0 | 0.00 | 0.00 | 0.00 | 84 | 1021.1 |
| 20260506031024 | 68 | 3 | 2.0 | 4.0 | 0.00 | 0.00 | 0.00 | 84 | 1021.1 |
| 20260506030530 | 68 | 358 | 2.0 | 4.0 | 0.00 | 0.00 | 0.00 | 84 | 1021.2 |
| 20260506030035 | 68 | 5 | 2.0 | 4.0 | 0.00 | 0.00 | 0.00 | 83 | 1021.2 |
| 20260506025538 | 68 | 360 | 2.0 | 3.0 | 0.00 | 0.00 | 0.00 | 83 | 1021.2 |
| 20260506025041 | 69 | 359 | 2.0 | 4.0 | 0.00 | 0.00 | 0.00 | 83 | 1021.2 |
| 20260506024543 | 69 | 1 | 3.0 | 4.0 | 0.00 | 0.00 | 0.00 | 83 | 1021.2 |
| 20260506024027 | 69 | 1 | 3.0 | 3.0 | 0.00 | 0.00 | 0.00 | 82 | 1021.1 |
| 20260506023531 | 69 | 1 | 2.0 | 4.0 | 0.00 | 0.00 | 0.00 | 82 | 1021.0 |
| 20260506023035 | 69 | 1 | 2.0 | 4.0 | 0.00 | 0.00 | 0.00 | 82 | 1021.0 |
| 20260506022556 | 69 | 4 | 2.0 | 4.0 | 0.00 | 0.00 | 0.00 | 82 | 1020.9 |
| 20260506022028 | 69 | 1 | 3.0 | 4.0 | 0.00 | 0.00 | 0.00 | 83 | 1020.9 |
| 20260506021533 | 69 | 5 | 3.0 | 5.0 | 0.00 | 0.00 | 0.00 | 82 | 1021.1 |
| 20260506021035 | 69 | 1 | 3.0 | 5.0 | 0.00 | 0.00 | 0.00 | 82 | 1021.3 |
| 20260506020538 | 69 | 8 | 2.0 | 4.0 | 0.00 | 0.00 | 0.00 | 82 | 1021.3 |
| 20260506020041 | 69 | 17 | 2.0 | 4.0 | 0.00 | 0.00 | 0.00 | 82 | 1021.4 |
| 20260506015544 | 70 | 41 | 2.0 | 3.0 | 0.00 | 0.00 | 0.00 | 81 | 1021.4 |
| 20260506015026 | 70 | 1 | 2.0 | 4.0 | 0.00 | 0.00 | 0.00 | 81 | 1021.4 |
| 20260506014530 | 70 | 8 | 2.0 | 4.0 | 0.00 | 0.00 | 0.00 | 81 | 1021.3 |
| 20260506014034 | 70 | 1 | 3.0 | 4.0 | 0.00 | 0.00 | 0.00 | 81 | 1021.3 |
| 20260506013537 | 70 | 18 | 3.0 | 4.0 | 0.00 | 0.00 | 0.00 | 81 | 1021.2 |
| 20260506013041 | 70 | 1 | 3.0 | 4.0 | 0.00 | 0.00 | 0.00 | 81 | 1021.3 |
| 20260506012601 | 70 | 6 | 2.0 | 4.0 | 0.00 | 0.00 | 0.00 | 81 | 1021.3 |
| 20260506012043 | 70 | 13 | 3.0 | 4.0 | 0.00 | 0.00 | 0.00 | 81 | 1021.3 |
| 20260506011531 | 70 | 359 | 2.0 | 3.0 | 0.00 | 0.00 | 0.00 | 80 | 1021.3 |
| 20260506011034 | 71 | 1 | 2.0 | 3.0 | 0.00 | 0.00 | 0.00 | 80 | 1021.2 |
| 20260506010537 | 71 | 1 | 2.0 | 4.0 | 0.00 | 0.00 | 0.00 | 79 | 1021.2 |
| 20260506010043 | 71 | 3 | 2.0 | 4.0 | 0.00 | 0.00 | 0.00 | 79 | 1021.2 |
| 20260506005529 | 71 | 19 | 2.0 | 4.0 | 0.00 | 0.00 | 0.00 | 79 | 1021.2 |
| 20260506005035 | 71 | 359 | 3.0 | 3.0 | 0.00 | 0.00 | 0.00 | 79 | 1021.2 |
| 20260506004538 | 71 | 350 | 2.0 | 3.0 | 0.00 | 0.00 | 0.00 | 79 | 1021.3 |
| 20260506004040 | 71 | 1 | 2.0 | 3.0 | 0.00 | 0.00 | 0.00 | 79 | 1021.2 |